Tracking 34794 objects as of 19-Jul-2026
HD Live streaming from Space Station
objects crossing your sky now

STARLINK-31153

Track STARLINK-31153 now!
10-day predictions
STARLINK-31153 is classified as:


NORAD ID: 59044
Int'l Code: 2024-038X
Perigee: 489.4 km
Apogee: 491.0 km
Inclination: 43.0 °
Period: 94.3 minutes
Semi major axis: 6861 km
RCS: Unknown
Launch date: February 25, 2024
Source: United States (US)
Launch site: AIR FORCE EASTERN TEST RANGE (AFETR)
Your satellite tracking list
Your tracking list is empty




NASA's NSSDC Master Catalog

Two Line Element Set (TLE):
1 59044U 24038X   26199.81674378  .00000376  00000-0  23169-4 0  9991
2 59044  43.0032   2.9238 0001136 266.4815  93.5907 15.27579788134744
Source of the keplerian elements: AFSPC